[[{"header":{"parameterUnit":"m.s-1","parameterCategory":1,"la1":30.2991,"la2":30.254,"lo1":-89.0895,"lo2":-89.0444,"dy":0.0017,"dx":0.0017,"nx":28,"ny":28,"refTime":"2024-03-19T21:00:00:Z","depth":0,"parameterNumber":2,"parameterNumberName":"U-component_of_WINDS"},"data":[0,0,0,0,0,0,0,0,0,0,0,0,0,0,0,0,0,0,0,0,0,0,0,0,0,0,0,0,0,0,0,0,0,0,0,0,0,0,0,0,0,0,0,0,0,0,0,0,0,0,0,0,0,0,0,0,0,0,-4.1354,-4.1354,0,-4.1361,-4.1361,-4.1361,-4.1284,-4.1282,-4.128,-4.1278,-4.1284,-4.1286,-4.1288,0,0,0,0,0,0,0,0,0,0,0,0,0,-4.1277,-4.1279,-4.1354,-4.1354,-4.1355,-4.1361,-4.1361,-4.1361,-4.1284,-4.1282,-4.1279,-4.1277,-4.1284,-4.1286,-4.1289,0,0,0,0,0,0,0,0,0,0,0,0,0,-4.13,-4.1279,-4.1354,-4.1317,-4.1314,-4.1361,-4.1361,-4.1361,-4.1285,-4.1282,-4.1279,-4.1276,-4.1283,-4.1286,-4.1289,-4.1372,0,0,-4.1299,-4.13,0,0,0,0,0,0,0,0,-4.1298,-4.1302,-4.1322,-4.132,-4.1316,-4.1318,-4.1336,-4.1365,-4.1286,-4.1296,-4.1278,-4.1274,-4.1298,-4.13,-4.1308,-4.1372,-4.1372,-4.1299,-4.1301,-4.1302,-4.1303,0,0,0,0,0,0,0,-4.1297,-4.1302,-4.1357,-4.1323,-4.1319,-4.13,-4.13,-4.1341,-4.1315,-4.1295,-4.1289,-4.1291,-4.1296,-4.1305,-4.1308,-4.1373,-4.1299,-4.1302,-4.1304,-4.1305,-4.1506,-4.1509,0,0,0,0,0,0,-4.13,-4.1301,-4.1357,-4.1357,-4.1299,-4.1304,-4.1304,-4.1321,-4.1314,-4.131,-4.1294,-4.1287,-4.1301,-4.1304,-4.1308,-4.1404,-4.1302,-4.1305,-4.1307,-4.1502,-4.1507,-4.151,0,0,0,0,0,0,-4.1299,-4.1306,-4.1356,-4.1328,-4.1333,-4.1309,-4.1329,-4.1323,-4.1332,-4.1313,-4.1308,-4.1308,-4.1299,-4.1303,-4.1357,-4.1403,-4.1307,-4.131,-4.1498,-4.1504,-4.1508,-4.1597,0,0,0,0,0,0,-4.1297,-4.1306,-4.1337,-4.1329,-4.1334,-4.1405,-4.1331,-4.1325,-4.1337,-4.1329,-4.1325,-4.1321,-4.1297,-4.1352,-4.136,-4.1406,-4.1312,-4.1494,-4.1501,-4.1507,-4.159,-4.1605,-4.1618,0,0,0,0,0,-4.1294,-4.1361,-4.1339,-4.1346,-4.1372,-4.1408,-4.1411,-4.1381,-4.1342,-4.1372,-4.1361,-4.1322,-4.1397,-4.1358,-4.1366,-4.1414,-4.1491,-4.1499,-4.1506,-4.1584,-4.1602,-4.1617,0,0,0,0,0,0,-4.1375,-4.136,-4.1334,-4.14,-4.1406,-4.1395,-4.1433,-4.1401,-4.1418,-4.141,-4.1372,-4.1372,-4.1432,-4.1428,-4.1385,-4.1494,-4.1437,-4.1447,-4.1494,-4.1511,-4.1524,-4.1523,-4.1315,0,0,0,0,0,-4.14,-4.1431,-4.1416,-4.1476,-4.148,-4.1457,-4.1471,-4.1448,-4.1452,-4.1454,-4.1446,-4.1452,-4.1477,-4.1494,-4.1516,-4.159,-4.1588,-4.1627,-4.1641,-4.1652,-4.166,-4.17,-4.1717,-4.1536,-4.1535,-4.1535,0,0,-4.1453,-4.1449,-4.147,-4.1492,-4.1493,-4.1525,-4.1459,-4.1495,-4.1519,-4.1459,-4.1509,-4.1504,-4.1508,-4.1573,-4.1601,-4.1572,-4.171,-4.1662,-4.1671,-4.1673,-4.1709,-4.1727,-4.1742,-4.1541,-4.154,-4.1539,0,0,-4.1565,-4.1565,-4.1615,-4.1619,-4.1622,-4.1606,-4.1619,-4.1613,-4.1607,-4.1657,-4.1613,-4.1641,-4.1685,-4.169,-4.1698,-4.1815,-4.1779,-4.1823,-4.1894,-4.1933,-4.1947,-4.196,-4.2001,-4.2016,-4.1832,-4.1832,-4.1832,0,-4.163,-4.1676,-4.1645,-4.1685,-4.1696,-4.1644,-4.1695,-4.17,-4.1711,-4.172,-4.1687,-4.1742,-4.1741,-4.1806,-4.1835,-4.1844,-4.1857,-4.1822,-4.1948,-4.196,-4.1971,-4.201,-4.2025,-4.1837,-4.1837,-4.1836,-4.1836,0,-4.1756,-4.1789,-4.1829,-4.1841,-4.1857,-4.1902,-4.1878,-4.1898,-4.1874,-4.1862,-4.1914,-4.1912,-4.1933,-4.1947,-4.1924,-4.2009,-4.1991,-4.1954,-4.1896,-4.1994,-4.203,-4.2044,-4.1845,-4.1843,-4.1842,-4.184,0,0,-4.1916,-4.1911,-4.1926,-4.1932,-4.1933,-4.1958,-4.2002,-4.2023,-4.204,-4.2051,-4.2086,-4.2126,-4.2092,-4.2101,-4.2079,-4.2113,-4.2206,-4.2072,-4.2072,-4.2096,-4.2299,-4.2326,-4.2344,-4.2183,-4.2186,-4.2188,-4.2299,0,-4.2024,-4.2097,-4.2071,-4.2146,-4.2176,-4.2129,-4.2167,-4.2173,-4.2163,-4.2188,-4.2178,-4.2206,-4.216,-4.2165,-4.2198,-4.2188,-4.2246,-4.218,-4.2215,-4.2217,-4.2214,-4.2362,-4.239,-4.2494,-4.2313,-4.2315,-4.2317,0,-4.2159,-4.2175,-4.2253,-4.225,-4.2262,-4.2297,-4.2314,-4.2339,-4.2344,-4.2335,-4.2347,-4.2318,-4.2361,-4.2305,-4.2364,-4.2319,-4.2333,-4.2331,-4.2334,-4.2334,-4.2271,-4.2366,-4.2527,-4.2542,-4.2338,-4.2337,-4.2335,0,-4.2267,-4.2308,-4.236,-4.2366,-4.2365,-4.239,-4.2391,-4.2393,-4.2408,-4.2424,-4.2433,-4.2454,-4.2465,-4.2482,-4.246,-4.2421,-4.2522,-4.2464,-4.2515,-4.2516,-4.2536,-4.2535,-4.2701,-4.2548,-4.2548,-4.2548,-4.2548,0,-4.2389,-4.2438,-4.2408,-4.244,-4.2495,-4.2465,-4.252,-4.2515,-4.2519,-4.2549,-4.2511,-4.254,-4.2509,-4.2537,-4.252,-4.2571,-4.2576,-4.257,-4.2565,-4.2572,-4.2573,-4.2579,-4.2571,-4.2552,-4.2551,-4.255,-4.255,0,-4.2517,-4.2499,-4.2553,-4.2548,-4.2548,-4.2588,-4.2583,-4.2613,-4.2602,-4.2641,-4.2649,-4.2632,-4.2662,-4.2642,-4.2672,-4.266,-4.2727,-4.2712,-4.2725,-4.272,-4.2772,-4.2767,-4.2946,-4.2968,-4.2804,-4.2805,-4.2807,0,-4.2595,-4.2632,-4.2632,-4.2649,-4.2653,-4.2682,-4.2697,-4.267,-4.2688,-4.2698,-4.2727,-4.2754,-4.2773,-4.2823,-4.2814,-4.2837,-4.2821,-4.2883,-4.2824,-4.2832,-4.2821,-4.2818,-4.2822,-4.2894,-4.2896,-4.2897,-4.2899,0,-4.2736,-4.2726,-4.2749,-4.277,-4.2789,-4.2804,-4.2815,-4.2833,-4.2806,-4.2828,-4.2858,-4.2873,-4.2905,-4.2932,-4.2952,-4.2952,-4.2921,-4.2918,-4.293,-4.2938,-4.2943,-4.294,-4.2755,-4.2913,-4.2911,-4.291,-4.291,-4.2909,-4.284,-4.2871,-4.2876,-4.2903,-4.291,-4.2922,-4.295,-4.2943,-4.2968,-4.2991,-4.2975,-4.3011,-4.3017,-4.304,-4.3046,-4.3074,-4.3049,-4.3068,-4.3072,-4.3077,-4.3084,-4.2941,-4.3077,-4.3077,-4.3077,-4.3076,-4.3076,0,-4.2978,-4.2979,-4.3005,-4.3023,-4.3045,-4.3015,-4.3027,-4.3047,-4.308,-4.3088,-4.3109,-4.3145,-4.3171,-4.3165,-4.3189,-4.3213,-4.3199,-4.322,-4.3217,-4.3218,-4.3105,-4.3091,-4.3231,-4.3231,-4.3231,-4.3231,-4.3231,-4.3231,-4.3052,-4.3102,-4.3093,-4.3147,-4.3148,-4.3183,-4.3193,-4.3204,-4.3211,-4.3252,-4.3275,-4.327,-4.3273,-4.3298,-4.3321,-4.3319,-4.3329,-4.3355,-4.3347,-4.3241,-4.3226,-4.3211,-4.3197,-4.3358,-4.3358,-4.3457,-4.3458,-4.3459]},{"header":{"parameterUnit":"m.s-1","parameterCategory":1,"la1":30.2991,"la2":30.254,"lo1":-89.0895,"lo2":-89.0444,"dy":0.0017,"dx":0.0017,"nx":28,"ny":28,"refTime":"2024-03-19T21:00:00:Z","depth":0,"parameterNumber":3,"parameterNumberName":"V-component_of_WINDS"},"data":[0,0,0,0,0,0,0,0,0,0,0,0,0,0,0,0,0,0,0,0,0,0,0,0,0,0,0,0,0,0,0,0,0,0,0,0,0,0,0,0,0,0,0,0,0,0,0,0,0,0,0,0,0,0,0,0,0,0,2.3196,2.3196,0,2.3213,2.3213,2.3213,2.3249,2.325,2.325,2.3251,2.3262,2.3262,2.3262,0,0,0,0,0,0,0,0,0,0,0,0,0,2.3192,2.3192,2.3196,2.3196,2.3197,2.3213,2.3213,2.3213,2.3249,2.325,2.3251,2.3251,2.3262,2.3262,2.3262,0,0,0,0,0,0,0,0,0,0,0,0,0,2.32,2.3192,2.3196,2.3217,2.3219,2.3213,2.3213,2.3213,2.3249,2.325,2.3251,2.3252,2.3263,2.3262,2.3261,2.3235,0,0,2.326,2.3259,0,0,0,0,0,0,0,0,2.3199,2.32,2.3213,2.3215,2.3217,2.323,2.3216,2.322,2.3248,2.3237,2.3251,2.3252,2.325,2.3251,2.3251,2.3236,2.3236,2.326,2.3259,2.3259,2.3259,0,0,0,0,0,0,0,2.3199,2.3199,2.3203,2.3213,2.3216,2.3224,2.3226,2.3217,2.3237,2.3238,2.3241,2.3242,2.3252,2.3252,2.3252,2.3237,2.326,2.3259,2.3259,2.3258,2.3203,2.3202,0,0,0,0,0,0,2.3196,2.3199,2.3202,2.3203,2.3211,2.3223,2.3225,2.3225,2.3237,2.324,2.3242,2.3244,2.3252,2.3252,2.3252,2.3224,2.3259,2.3258,2.3258,2.3204,2.3203,2.3201,0,0,0,0,0,0,2.3196,2.3196,2.3201,2.3202,2.3203,2.3222,2.3221,2.3224,2.3225,2.324,2.3243,2.3238,2.3253,2.3253,2.324,2.3225,2.3258,2.3258,2.3205,2.3204,2.3202,2.3166,0,0,0,0,0,0,2.3195,2.3196,2.3186,2.3201,2.3203,2.319,2.322,2.3224,2.3224,2.3228,2.3238,2.324,2.3254,2.3241,2.324,2.3225,2.3257,2.3207,2.3204,2.3203,2.3169,2.3164,2.3159,0,0,0,0,0,2.3195,2.3174,2.3186,2.3186,2.3192,2.3189,2.319,2.3208,2.3223,2.3214,2.3224,2.324,2.3227,2.3239,2.3238,2.3223,2.3208,2.3205,2.3203,2.3171,2.3165,2.3159,0,0,0,0,0,0,2.3154,2.3176,2.3189,2.3173,2.3179,2.3195,2.3184,2.32,2.32,2.3203,2.3224,2.3225,2.321,2.3215,2.3228,2.3199,2.322,2.3217,2.3197,2.319,2.3186,2.3185,2.3257,0,0,0,0,0,2.3144,2.3141,2.316,2.3143,2.3146,2.3164,2.3163,2.3177,2.3184,2.3186,2.3195,2.3199,2.3196,2.3194,2.3192,2.317,2.3173,2.3159,2.3154,2.315,2.3147,2.3138,2.3132,2.3193,2.3193,2.3193,0,0,2.3121,2.3133,2.3129,2.3135,2.3142,2.3138,2.3166,2.316,2.3157,2.3184,2.3173,2.318,2.3186,2.317,2.3163,2.3173,2.3131,2.3147,2.3144,2.3143,2.3135,2.3129,2.3124,2.3191,2.3192,2.3192,0,0,2.3078,2.3087,2.3075,2.3082,2.3092,2.3105,2.3102,2.3116,2.3123,2.3113,2.3134,2.313,2.3124,2.3128,2.313,2.3091,2.3106,2.309,2.3064,2.3054,2.305,2.3045,2.3032,2.3027,2.3087,2.3087,2.3087,0,2.3048,2.3044,2.3066,2.306,2.3062,2.3089,2.3077,2.3082,2.309,2.3091,2.3103,2.3099,2.3104,2.309,2.3081,2.3081,2.3078,2.3088,2.3049,2.3045,2.3041,2.3029,2.3024,2.3085,2.3085,2.3085,2.3085,0,2.3007,2.3004,2.2993,2.3004,2.3005,2.2995,2.3015,2.3013,2.3027,2.3039,2.3029,2.3037,2.3039,2.3036,2.3048,2.3024,2.303,2.3045,2.3067,2.3033,2.3022,2.3018,2.3082,2.3083,2.3083,2.3084,0,0,2.2937,2.2962,2.2958,2.2964,2.2979,2.2976,2.2968,2.2972,2.297,2.2975,2.2969,2.2965,2.298,2.2981,2.2995,2.2986,2.2957,2.3003,2.3003,2.2994,2.2931,2.292,2.2914,2.2968,2.2967,2.2966,2.2931,0,2.2898,2.2888,2.2908,2.2892,2.289,2.2917,2.2911,2.2918,2.2929,2.2928,2.2939,2.2937,2.2956,2.2958,2.2951,2.2962,2.2944,2.2965,2.2961,2.2961,2.2959,2.2909,2.2896,2.2863,2.2927,2.2926,2.2926,0,2.285,2.2856,2.2841,2.2859,2.2858,2.2852,2.2858,2.2857,2.2866,2.2875,2.2878,2.2895,2.2888,2.2909,2.29,2.2913,2.2913,2.2919,2.2918,2.2918,2.2941,2.2908,2.2853,2.2848,2.2919,2.2919,2.292,0,2.2802,2.2806,2.2798,2.2802,2.2822,2.2817,2.2825,2.2836,2.2837,2.2842,2.2843,2.2846,2.2848,2.2849,2.2867,2.288,2.2855,2.2878,2.2862,2.2862,2.2855,2.2855,2.2799,2.2855,2.2855,2.2855,2.2855,0,2.2756,2.2745,2.2777,2.2771,2.2761,2.2785,2.2773,2.2784,2.2794,2.2791,2.2814,2.281,2.2833,2.2832,2.2845,2.2836,2.2836,2.2842,2.2846,2.2841,2.284,2.2841,2.2843,2.2853,2.2854,2.2854,2.2854,0,2.2699,2.272,2.2713,2.2734,2.2739,2.2731,2.2748,2.2744,2.2757,2.2753,2.2754,2.2774,2.2774,2.2792,2.2794,2.2804,2.2789,2.2796,2.2786,2.2789,2.2773,2.2774,2.2715,2.2709,2.2768,2.2767,2.2767,0,2.2669,2.2662,2.2683,2.2684,2.2692,2.2692,2.2695,2.2718,2.272,2.2732,2.2726,2.2729,2.2732,2.2731,2.2745,2.2747,2.2755,2.2735,2.2756,2.2751,2.2756,2.2756,2.2756,2.273,2.2729,2.2729,2.2728,0,2.2612,2.2624,2.2628,2.2635,2.2639,2.2645,2.2653,2.2652,2.2678,2.2678,2.268,2.2683,2.2688,2.269,2.2696,2.2703,2.272,2.2722,2.2719,2.2713,2.2708,2.2711,2.2775,2.2723,2.2723,2.2724,2.2724,2.2724,2.2569,2.2565,2.258,2.2584,2.2593,2.26,2.2599,2.2613,2.2615,2.2622,2.2636,2.2636,2.2647,2.2657,2.2663,2.2663,2.2673,2.2668,2.2666,2.2665,2.2662,2.2708,2.2664,2.2664,2.2664,2.2664,2.2664,0,2.2514,2.2526,2.253,2.2542,2.2545,2.2563,2.2574,2.2575,2.2575,2.2585,2.2589,2.2591,2.2594,2.261,2.2614,2.2611,2.2619,2.2612,2.2612,2.2614,2.2652,2.2655,2.2605,2.2605,2.2605,2.2605,2.2605,2.2605,2.2487,2.2482,2.2495,2.2495,2.2506,2.2508,2.2513,2.252,2.2528,2.2531,2.2534,2.2545,2.2558,2.2564,2.2567,2.2572,2.2572,2.2562,2.2569,2.2605,2.2611,2.2616,2.2619,2.2562,2.2562,2.2531,2.253,2.253]}]]